| time (UTC) | temp F | wind direction | speed MPH | gust MPH | rain 1hr in | rain 24hr in | rain mn in | humidity % | barometer mb |
| 20260505021846 | 64 | 277 | 1.0 | 4.0 | 0.00 | 0.00 | 0.00 | 69 | 1038.3 |
| 20260505021343 | 64 | 205 | 1.0 | 4.0 | 0.00 | 0.00 | 0.00 | 68 | 1038.3 |
| 20260505021110 | 64 | 210 | 1.0 | 5.0 | 0.00 | 0.00 | 0.00 | 69 | 1038.3 |
| 20260505020336 | 64 | 254 | 1.0 | 5.0 | 0.00 | 0.00 | 0.00 | 69 | 1038.1 |
| 20260505015830 | 64 | 250 | 1.0 | 3.0 | 0.00 | 0.00 | 0.00 | 69 | 1038.1 |
| 20260505015325 | 64 | 185 | 1.0 | 4.0 | 0.00 | 0.00 | 0.00 | 68 | 1038.1 |
| 20260505014818 | 64 | 151 | 1.0 | 4.0 | 0.00 | 0.00 | 0.00 | 68 | 1038.1 |
| 20260505014312 | 64 | 201 | 1.0 | 3.0 | 0.00 | 0.00 | 0.00 | 67 | 1038.1 |
| 20260505013807 | 65 | 155 | 0.0 | 2.0 | 0.00 | 0.00 | 0.00 | 67 | 1038.1 |
| 20260505013527 | 65 | 226 | 0.0 | 3.0 | 0.00 | 0.00 | 0.00 | 67 | 1038.0 |
| 20260505012755 | 65 | 267 | 1.0 | 3.0 | 0.00 | 0.00 | 0.00 | 66 | 1038.0 |
| 20260505012244 | 65 | 204 | 1.0 | 4.0 | 0.00 | 0.00 | 0.00 | 65 | 1038.0 |
| 20260505011742 | 66 | 183 | 2.0 | 4.0 | 0.00 | 0.00 | 0.00 | 65 | 1037.6 |
| 20260505011236 | 66 | 157 | 1.0 | 4.0 | 0.00 | 0.00 | 0.00 | 64 | 1037.6 |
| 20260505010730 | 66 | 210 | 1.0 | 4.0 | 0.00 | 0.00 | 0.00 | 64 | 1037.6 |
| 20260505010449 | 67 | 198 | 1.0 | 3.0 | 0.00 | 0.00 | 0.00 | 64 | 1037.3 |
| 20260505005713 | 67 | 159 | 1.0 | 4.0 | 0.00 | 0.00 | 0.00 | 64 | 1037.3 |
| 20260505005212 | 67 | 219 | 2.0 | 6.0 | 0.00 | 0.00 | 0.00 | 63 | 1037.3 |
| 20260505004707 | 67 | 260 | 2.0 | 6.0 | 0.00 | 0.00 | 0.00 | 63 | 1037.2 |
| 20260505004200 | 67 | 248 | 1.0 | 5.0 | 0.00 | 0.00 | 0.00 | 63 | 1037.2 |
| 20260505003654 | 67 | 254 | 1.0 | 6.0 | 0.00 | 0.00 | 0.00 | 63 | 1037.2 |
| 20260505003150 | 67 | 225 | 1.0 | 6.0 | 0.00 | 0.00 | 0.00 | 62 | 1037.0 |
| 20260505002642 | 67 | 244 | 1.0 | 7.0 | 0.00 | 0.00 | 0.00 | 62 | 1037.0 |
| 20260505002133 | 68 | 282 | 1.0 | 7.0 | 0.00 | 0.00 | 0.00 | 61 | 1037.0 |
| 20260505001630 | 68 | 184 | 1.0 | 6.0 | 0.00 | 0.00 | 0.00 | 60 | 1037.0 |
| 20260505001125 | 68 | 237 | 2.0 | 7.0 | 0.00 | 0.00 | 0.00 | 60 | 1037.0 |
| 20260505000841 | 69 | 229 | 2.0 | 7.0 | 0.00 | 0.00 | 0.00 | 60 | 1036.9 |
| 20260505000113 | 69 | 228 | 2.0 | 6.0 | 0.00 | 0.00 | 0.00 | 59 | 1036.9 |
| 20260504235606 | 69 | 265 | 2.0 | 5.0 | 0.00 | 0.00 | 0.00 | 59 | 1036.9 |
| 20260504235539 | 69 | 189 | 3.0 | 11.0 | 0.00 | 0.00 | 0.00 | 58 | 1036.9 |
| 20260504234549 | 70 | 234 | 4.0 | 12.0 | 0.00 | 0.00 | 0.00 | 58 | 1036.9 |
| 20260504234048 | 70 | 201 | 4.0 | 12.0 | 0.00 | 0.00 | 0.00 | 57 | 1036.9 |
| 20260504233542 | 71 | 235 | 4.0 | 11.0 | 0.00 | 0.00 | 0.00 | 55 | 1036.7 |
| 20260504233037 | 72 | 255 | 4.0 | 14.0 | 0.00 | 0.00 | 0.00 | 52 | 1036.7 |
| 20260504232530 | 72 | 192 | 5.0 | 14.0 | 0.00 | 0.00 | 0.00 | 51 | 1036.7 |
| 20260504232024 | 73 | 198 | 3.0 | 11.0 | 0.00 | 0.00 | 0.00 | 50 | 1036.6 |
| 20260504231518 | 73 | 238 | 2.0 | 9.0 | 0.00 | 0.00 | 0.00 | 51 | 1036.6 |
| 20260504231235 | 73 | 159 | 2.0 | 7.0 | 0.00 | 0.00 | 0.00 | 52 | 1036.6 |
| 20260504230506 | 73 | 246 | 1.0 | 7.0 | 0.00 | 0.00 | 0.00 | 50 | 1036.6 |
| 20260504230000 | 73 | 167 | 1.0 | 5.0 | 0.00 | 0.00 | 0.00 | 51 | 1036.6 |
| 20260504225454 | 74 | 209 | 2.0 | 6.0 | 0.00 | 0.00 | 0.00 | 50 | 1036.6 |
| 20260504225213 | 74 | 162 | 2.0 | 9.0 | 0.00 | 0.00 | 0.00 | 50 | 1036.5 |
| 20260504224717 | 74 | 159 | 2.0 | 9.0 | 0.00 | 0.00 | 0.00 | 50 | 1036.5 |
| 20260504223936 | 74 | 146 | 3.0 | 9.0 | 0.00 | 0.00 | 0.00 | 49 | 1036.5 |
| 20260504223425 | 74 | 149 | 3.0 | 9.0 | 0.00 | 0.00 | 0.00 | 48 | 1036.5 |
| 20260504222924 | 74 | 209 | 2.0 | 5.0 | 0.00 | 0.00 | 0.00 | 49 | 1036.5 |
| 20260504222418 | 75 | 169 | 2.0 | 9.0 | 0.00 | 0.00 | 0.00 | 48 | 1036.5 |
| 20260504221913 | 75 | 137 | 3.0 | 9.0 | 0.00 | 0.00 | 0.00 | 49 | 1036.5 |
| 20260504221635 | 75 | 219 | 3.0 | 9.0 | 0.00 | 0.00 | 0.00 | 47 | 1036.5 |
| 20260504220900 | 75 | 156 | 2.0 | 9.0 | 0.00 | 0.00 | 0.00 | 47 | 1036.5 |
| 20260504220354 | 74 | 155 | 2.0 | 6.0 | 0.00 | 0.00 | 0.00 | 48 | 1036.5 |
| 20260504215844 | 74 | 136 | 2.0 | 6.0 | 0.00 | 0.00 | 0.00 | 48 | 1036.5 |
| 20260504215342 | 75 | 216 | 2.0 | 7.0 | 0.00 | 0.00 | 0.00 | 47 | 1036.5 |
| 20260504214836 | 75 | 205 | 3.0 | 10.0 | 0.00 | 0.00 | 0.00 | 47 | 1036.5 |
| 20260504214330 | 75 | 153 | 3.0 | 9.0 | 0.00 | 0.00 | 0.00 | 47 | 1036.5 |
| 20260504213824 | 74 | 192 | 4.0 | 9.0 | 0.00 | 0.00 | 0.00 | 47 | 1036.5 |
| 20260504213318 | 74 | 220 | 3.0 | 9.0 | 0.00 | 0.00 | 0.00 | 46 | 1036.5 |
| 20260504212812 | 74 | 148 | 3.0 | 10.0 | 0.00 | 0.00 | 0.00 | 47 | 1036.5 |
| 20260504212303 | 75 | 154 | 4.0 | 11.0 | 0.00 | 0.00 | 0.00 | 46 | 1036.5 |
| 20260504211800 | 76 | 229 | 2.0 | 11.0 | 0.00 | 0.00 | 0.00 | 44 | 1036.3 |
| 20260504211254 | 76 | 235 | 2.0 | 7.0 | 0.00 | 0.00 | 0.00 | 45 | 1036.3 |
| 20260504210748 | 76 | 267 | 2.0 | 8.0 | 0.00 | 0.00 | 0.00 | 43 | 1036.3 |
| 20260504210242 | 76 | 159 | 2.0 | 7.0 | 0.00 | 0.00 | 0.00 | 43 | 1036.4 |
| 20260504210002 | 76 | 134 | 1.0 | 4.0 | 0.00 | 0.00 | 0.00 | 47 | 1036.4 |
| 20260504205229 | 75 | 261 | 2.0 | 8.0 | 0.00 | 0.00 | 0.00 | 44 | 1036.4 |
| 20260504204720 | 76 | 238 | 3.0 | 8.0 | 0.00 | 0.00 | 0.00 | 43 | 1036.5 |
| 20260504204437 | 77 | 206 | 3.0 | 8.0 | 0.00 | 0.00 | 0.00 | 42 | 1036.5 |
| 20260504203933 | 77 | 218 | 4.0 | 11.0 | 0.00 | 0.00 | 0.00 | 42 | 1036.5 |
| 20260504203205 | 77 | 215 | 4.0 | 11.0 | 0.00 | 0.00 | 0.00 | 42 | 1036.5 |
| 20260504202700 | 77 | 144 | 3.0 | 10.0 | 0.00 | 0.00 | 0.00 | 42 | 1036.5 |
| 20260504202153 | 77 | 221 | 3.0 | 9.0 | 0.00 | 0.00 | 0.00 | 41 | 1036.5 |
| 20260504201915 | 77 | 226 | 2.0 | 9.0 | 0.00 | 0.00 | 0.00 | 43 | 1036.7 |
| 20260504201141 | 77 | 190 | 2.0 | 9.0 | 0.00 | 0.00 | 0.00 | 45 | 1036.7 |
| 20260504200630 | 77 | 150 | 3.0 | 9.0 | 0.00 | 0.00 | 0.00 | 43 | 1036.7 |
| 20260504200130 | 77 | 128 | 3.0 | 9.0 | 0.00 | 0.00 | 0.00 | 44 | 1037.0 |
| 20260504195623 | 76 | 254 | 3.0 | 9.0 | 0.00 | 0.00 | 0.00 | 42 | 1037.0 |
| 20260504195113 | 76 | 142 | 3.0 | 9.0 | 0.00 | 0.00 | 0.00 | 46 | 1037.2 |
| 20260504194611 | 76 | 229 | 2.0 | 9.0 | 0.00 | 0.00 | 0.00 | 44 | 1037.2 |
| 20260504194106 | 76 | 194 | 3.0 | 9.0 | 0.00 | 0.00 | 0.00 | 42 | 1037.2 |
| 20260504193559 | 75 | 214 | 4.0 | 11.0 | 0.00 | 0.00 | 0.00 | 44 | 1037.5 |
| 20260504193050 | 76 | 219 | 4.0 | 11.0 | 0.00 | 0.00 | 0.00 | 43 | 1037.5 |
| 20260504192815 | 76 | 237 | 3.0 | 11.0 | 0.00 | 0.00 | 0.00 | 43 | 1037.5 |
| 20260504192041 | 76 | 178 | 2.0 | 7.0 | 0.00 | 0.00 | 0.00 | 43 | 1037.8 |
| 20260504191800 | 76 | 261 | 4.0 | 10.0 | 0.00 | 0.00 | 0.00 | 44 | 1037.8 |
| 20260504191029 | 76 | 167 | 5.0 | 13.0 | 0.00 | 0.00 | 0.00 | 43 | 1037.8 |
| 20260504190523 | 77 | 155 | 4.0 | 13.0 | 0.00 | 0.00 | 0.00 | 42 | 1038.0 |
| 20260504190012 | 77 | 88 | 3.0 | 9.0 | 0.00 | 0.00 | 0.00 | 44 | 1038.0 |
| 20260504185507 | 76 | 172 | 4.0 | 10.0 | 0.00 | 0.00 | 0.00 | 44 | 1038.0 |
| 20260504185227 | 76 | 282 | 4.0 | 10.0 | 0.00 | 0.00 | 0.00 | 43 | 1038.0 |
| 20260504184724 | 76 | 144 | 3.0 | 8.0 | 0.00 | 0.00 | 0.00 | 46 | 1038.0 |
| 20260504184221 | 76 | 200 | 4.0 | 9.0 | 0.00 | 0.00 | 0.00 | 48 | 1038.0 |
| 20260504183447 | 75 | 190 | 4.0 | 9.0 | 0.00 | 0.00 | 0.00 | 48 | 1038.4 |
| 20260504182941 | 74 | 185 | 3.0 | 10.0 | 0.00 | 0.00 | 0.00 | 45 | 1038.4 |
| 20260504182435 | 74 | 165 | 3.0 | 10.0 | 0.00 | 0.00 | 0.00 | 45 | 1038.4 |
| 20260504181925 | 74 | 246 | 4.0 | 12.0 | 0.00 | 0.00 | 0.00 | 46 | 1038.6 |
| 20260504181424 | 74 | 253 | 4.0 | 12.0 | 0.00 | 0.00 | 0.00 | 44 | 1038.6 |
| 20260504180914 | 75 | 154 | 3.0 | 13.0 | 0.00 | 0.00 | 0.00 | 44 | 1038.6 |
| 20260504180412 | 74 | 150 | 3.0 | 13.0 | 0.00 | 0.00 | 0.00 | 49 | 1038.9 |
| 20260504175906 | 74 | 176 | 3.0 | 6.0 | 0.00 | 0.00 | 0.00 | 46 | 1038.9 |
| 20260504175400 | 75 | 135 | 3.0 | 8.0 | 0.00 | 0.00 | 0.00 | 47 | 1038.9 |
| 20260504174854 | 75 | 241 | 3.0 | 10.0 | 0.00 | 0.00 | 0.00 | 47 | 1038.9 |
| 20260504174343 | 74 | 209 | 3.0 | 10.0 | 0.00 | 0.00 | 0.00 | 45 | 1038.9 |
| 20260504173841 | 74 | 161 | 3.0 | 8.0 | 0.00 | 0.00 | 0.00 | 49 | 1038.9 |
| 20260504173335 | 74 | 243 | 3.0 | 8.0 | 0.00 | 0.00 | 0.00 | 48 | 1039.1 |
| 20260504172829 | 73 | 178 | 3.0 | 7.0 | 0.00 | 0.00 | 0.00 | 46 | 1039.1 |
| 20260504172323 | 73 | 211 | 3.0 | 9.0 | 0.00 | 0.00 | 0.00 | 45 | 1039.1 |
| 20260504171812 | 73 | 260 | 4.0 | 11.0 | 0.00 | 0.00 | 0.00 | 47 | 1039.3 |
| 20260504171312 | 73 | 151 | 3.0 | 11.0 | 0.00 | 0.00 | 0.00 | 48 | 1039.3 |
| 20260504170801 | 72 | 150 | 4.0 | 9.0 | 0.00 | 0.00 | 0.00 | 46 | 1039.3 |
| 20260504170742 | 71 | 250 | 4.0 | 9.0 | 0.00 | 0.00 | 0.00 | 49 | 1039.7 |
| 20260504160147 | 70 | 172 | 3.0 | 8.0 | 0.00 | 0.00 | 0.00 | 47 | 1040.3 |
| 20260504151116 | 68 | 198 | 3.0 | 7.0 | 0.00 | 0.00 | 0.00 | 49 | 1040.7 |
| 20260504150618 | 67 | 221 | 3.0 | 7.0 | 0.00 | 0.00 | 0.00 | 51 | 1040.7 |
| 20260504150117 | 67 | 159 | 3.0 | 8.0 | 0.00 | 0.00 | 0.00 | 51 | 1040.8 |
| 20260504141321 | 64 | 205 | 4.0 | 12.0 | 0.00 | 0.00 | 0.00 | 53 | 1041.2 |
| 20260504140818 | 64 | 158 | 4.0 | 12.0 | 0.00 | 0.00 | 0.00 | 52 | 1041.3 |
| 20260504130539 | 60 | 195 | 4.0 | 13.0 | 0.00 | 0.00 | 0.00 | 53 | 1041.4 |
| 20260504110557 | 44 | 281 | 0.0 | 0.0 | 0.00 | 0.00 | 0.00 | 89 | 1041.9 |
| 20260504100224 | 43 | 281 | 0.0 | 0.0 | 0.00 | 0.00 | 0.00 | 91 | 1042.1 |
| 20260504090112 | 42 | 281 | 0.0 | 0.0 | 0.00 | 0.00 | 0.00 | 92 | 1042.3 |
| 20260504081519 | 42 | 281 | 0.0 | 1.0 | 0.00 | 0.00 | 0.00 | 90 | 1042.3 |
| 20260504081003 | 43 | 281 | 0.0 | 1.0 | 0.00 | 0.00 | 0.00 | 90 | 1042.3 |
| 20260504080728 | 43 | 281 | 0.0 | 0.0 | 0.00 | 0.00 | 0.00 | 90 | 1042.3 |
| 20260504070354 | 42 | 281 | 0.0 | 1.0 | 0.00 | 0.00 | 0.00 | 91 | 1042.5 |
| 20260504060238 | 38 | 281 | 0.0 | 0.0 | 0.00 | 0.00 | 0.00 | 93 | 1042.8 |
| 20260504050731 | 36 | 281 | 0.0 | 1.0 | 0.00 | 0.00 | 0.00 | 92 | 1043.1 |
| 20260504050232 | 35 | 281 | 0.0 | 1.0 | 0.00 | 0.00 | 0.00 | 92 | 1043.1 |
| 20260504045725 | 35 | 281 | 0.0 | 0.0 | 0.00 | 0.00 | 0.00 | 91 | 1043.1 |
| 20260504045213 | 35 | 281 | 0.0 | 0.0 | 0.00 | 0.00 | 0.00 | 90 | 1043.1 |
| 20260504044711 | 35 | 281 | 0.0 | 0.0 | 0.00 | 0.00 | 0.00 | 90 | 1043.3 |
| 20260504044430 | 36 | 281 | 0.0 | 0.0 | 0.00 | 0.00 | 0.00 | 90 | 1043.3 |
| 20260504043711 | 36 | 281 | 0.0 | 0.0 | 0.00 | 0.00 | 0.00 | 90 | 1043.3 |
| 20260504043212 | 36 | 281 | 0.0 | 0.0 | 0.00 | 0.00 | 0.00 | 90 | 1043.2 |
| 20260504042711 | 37 | 281 | 0.0 | 0.0 | 0.00 | 0.00 | 0.00 | 90 | 1043.2 |
| 20260504042442 | 37 | 281 | 0.0 | 0.0 | 0.00 | 0.00 | 0.00 | 90 | 1043.2 |
| 20260504041715 | 36 | 281 | 0.0 | 0.0 | 0.00 | 0.00 | 0.00 | 90 | 1043.3 |
| 20260504041216 | 37 | 281 | 0.0 | 0.0 | 0.00 | 0.00 | 0.00 | 89 | 1043.3 |
| 20260504040708 | 37 | 281 | 0.0 | 0.0 | 0.00 | 0.00 | 0.00 | 89 | 1043.3 |
| 20260504040414 | 37 | 281 | 0.0 | 0.0 | 0.00 | 0.00 | 0.00 | 89 | 1043.3 |
| 20260504035645 | 37 | 281 | 0.0 | 0.0 | 0.00 | 0.00 | 0.00 | 89 | 1043.3 |
| 20260504035132 | 37 | 281 | 0.0 | 1.0 | 0.00 | 0.00 | 0.00 | 89 | 1043.3 |
| 20260504034621 | 37 | 281 | 0.0 | 1.0 | 0.00 | 0.00 | 0.00 | 89 | 1042.9 |
| 20260504034110 | 37 | 250 | 0.0 | 0.0 | 0.00 | 0.00 | 0.00 | 89 | 1042.9 |
| 20260504033608 | 37 | 250 | 0.0 | 0.0 | 0.00 | 0.00 | 0.00 | 88 | 1043.0 |
| 20260504033326 | 38 | 250 | 0.0 | 0.0 | 0.00 | 0.00 | 0.00 | 87 | 1043.0 |
| 20260504032556 | 38 | 250 | 0.0 | 0.0 | 0.00 | 0.00 | 0.00 | 86 | 1043.0 |
| 20260504032049 | 38 | 250 | 0.0 | 0.0 | 0.00 | 0.00 | 0.00 | 86 | 1042.9 |
| 20260504031802 | 38 | 250 | 0.0 | 0.0 | 0.00 | 0.00 | 0.00 | 86 | 1042.9 |
| 20260504031301 | 38 | 250 | 0.0 | 0.0 | 0.00 | 0.00 | 0.00 | 85 | 1042.9 |
| 20260504030530 | 38 | 250 | 0.0 | 0.0 | 0.00 | 0.00 | 0.00 | 84 | 1042.9 |
| 20260504030024 | 39 | 250 | 0.0 | 0.0 | 0.00 | 0.00 | 0.00 | 84 | 1042.9 |
| 20260504025511 | 39 | 250 | 0.0 | 0.0 | 0.00 | 0.00 | 0.00 | 83 | 1042.9 |
| 20260504025012 | 39 | 250 | 0.0 | 0.0 | 0.00 | 0.00 | 0.00 | 83 | 1042.9 |
| 20260504024507 | 40 | 250 | 0.0 | 0.0 | 0.00 | 0.00 | 0.00 | 84 | 1042.9 |
| 20260504023956 | 40 | 250 | 0.0 | 0.0 | 0.00 | 0.00 | 0.00 | 84 | 1042.9 |
| 20260504023454 | 40 | 250 | 0.0 | 0.0 | 0.00 | 0.00 | 0.00 | 84 | 1042.8 |
| 20260504022949 | 40 | 250 | 0.0 | 0.0 | 0.00 | 0.00 | 0.00 | 82 | 1042.8 |
| 20260504022705 | 40 | 250 | 0.0 | 0.0 | 0.00 | 0.00 | 0.00 | 82 | 1042.8 |
| 20260504022204 | 41 | 250 | 0.0 | 0.0 | 0.00 | 0.00 | 0.00 | 82 | 1042.7 |